Regional Weather Roundup
Issued by NWS

Home | Current Version | Previous Version | Graphics & Text | Print | Product List | Glossary On
Versions: 1 2 3 4 5 6 7 8 9 10 11 12 13 14 15 16 17 18 19 20 21 22 23 24 25 26 27 28 29 30 31 32 33 34 35 36 37 38 39 40 41 42 43 44 45 46 47 48 49 50
000
ASUS45 KTFX 160804
RWRMT
MONTANA HOURLY WEATHER ROUNDUP
NATIONAL WEATHER SERVICE GREAT FALLS MT
204 AM MDT WED APR 16 2014

NOTE: "FAIR" INDICATES FEW OR NO CLOUDS BELOW 12000 FEET WITH NO
SIGNIFICANT WEATHER AND/OR OBSTRUCTIONS TO VISIBILITY.

* THESE STATIONS ARE NOT UNDER NWS QUALITY CONTROL. THEY DO NOT
   REPORT WEATHER SUCH AS PRECIPITATION OR FOG.

MTZ001>007-043-160900-
WEST OF THE DIVIDE
CITY           SKY/WX    TMP DP  RH WIND       PRES   REMARKS
KALISPELL      PTCLDY    30  30 100 W3        29.93R
MISSOULA       MOCLDY    34  32  92 CALM      30.00R
BUTTE          CLOUDY    32  19  59 NW7       29.95R WCI  25
MULLAN PASS    LGT SNOW  28  25  89 VRB7      29.92S WCI  21
* ESSEX        N/A       32  31  96 N/A        N/A
* LINCOLN      N/A       33  30  89 S4G10      N/A
* LOOKOUT PASS N/A       31  30  96 N/A        N/A
* POLSON       N/A       32  28  85 S1         N/A
* SEELEY LAKE  N/A       32  31  96 NE1        N/A
* THOMP F APT  MOCLDY    28  15  58 N5G13      N/A   WCI  22
$$

MTZ008-052>055-160900-
SOUTHWEST MONTANA
CITY           SKY/WX    TMP DP  RH WIND       PRES   REMARKS
BOZEMAN        LGT SNOW  36  28  73 CALM      29.96R
DILLON         PTCLDY    30  18  61 SW9       29.96R WCI  22
W YELLOWSTONE  N/A       21  19  92 N/A        N/A
* BOULDER HILL N/A       34  17  50 NE4G12     N/A
* MONIDA PASS  N/A       25  13  60 NW4        N/A
* RAYNOLDS PAS N/A       25 -22  11 VRB12G17    N/A   WCI  14
* WHITEHALL    N/A       38  20  48 W8G16      N/A   WCI  32
* WISE RIVER   N/A       33  18  54 W14G19     N/A   WCI  23
$$

MTZ009>010-012-014-046-048-049-054-160900-
EAST SLOPES AND CENTRAL MONTANA
CITY           SKY/WX    TMP DP  RH WIND       PRES   REMARKS
CUT BANK       LGT SNOW  34  32  92 NW3       29.90R
GREAT FALLS    CLOUDY    36  36 100 W6        29.88R WCI  31
HELENA         PTCLDY    39  27  62 W8        29.93R WCI  33
MALMSTROM AFB  CLOUDY    37  34  89 W5        29.87R WCI  33
* DEARBORN     N/A       34  32  92 SW3        N/A
* EAST GLACIER N/A       29  29 100 SE2        N/A
* MONARCH      N/A       30  28  92 W6         N/A   WCI  24
* PENDROY      N/A       32  31  96 N6         N/A   WCI  26
* ROGERS PASS  N/A       30  26  85 E4G13      N/A
* SAINT MARY   N/A       32  31  96 N/A        N/A
* SWEET GRASS  N/A       32  32 100 N/A        N/A
$$

MTZ011-013-016-021-035-040-045-047-050-051-160900-
NORTH CENTRAL MONTANA
CITY           SKY/WX    TMP DP  RH WIND       PRES   REMARKS
HAVRE          CLOUDY    36  23  59 CALM      29.91R
LEWISTOWN      CLOUDY    34  32  92 W7        29.86R WCI  28
* CHESTER      N/A       37  25  62 E4         N/A
* DENTON       N/A       36  33  89 W11        N/A   WCI  28
* GEYSER       N/A       34  33  96 W12        N/A   WCI  25
* JUDITH GAP   N/A       35  29  79 NW9        N/A   WCI  28
* LOMA         N/A       37  23  57 N9         N/A   WCI  30
$$

MTZ017>020-022>027-061-062-160900-
NORTHEAST MONTANA
CITY           SKY/WX    TMP DP  RH WIND       PRES   REMARKS
GLASGOW        MOCLDY    28  19  69 NE16      29.82R WCI  16
GLENDIVE       CLOUDY    36  21  54 NE14      29.73R WCI  27
JORDAN         CLOUDY    37  21  52 N14       29.77R WCI  28
SIDNEY         CLOUDY    30  19  64 NE14      29.81R WCI  19
WOLF POINT     MOCLDY    28  19  69 NE15      29.83R WCI  16
* BEAVER HILL  N/A       30  20  66 E19G24     N/A   WCI  18
* CIRCLE       N/A       34  22  61 NE5G16     N/A   WCI  29
* LINDSAY DVD  N/A       30  22  72 NW8        N/A   WCI  22
* NAVAJO       N/A       25  21  85 NE14G19    N/A   WCI  13
* SACO         N/A       26  18  72 N10        N/A   WCI  16
$$

MTZ028>042-056>058-160900-
SOUTHCENTRAL AND SOUTHEAST MONTANA
CITY           SKY/WX    TMP DP  RH WIND       PRES   REMARKS
BAKER          MOCLDY    39  28  65 NW8       29.65R WCI  33
BILLINGS       CLOUDY    39  30  70 NW20      29.85R WCI  29
LIVINGSTON     CLOUDY    36  27  70 W18       29.90R WCI  26
MILES CITY     MOCLDY    39  27  62 NW16      29.73R WCI  30
* LAUREL APT   MOCLDY    39  28  65 W14G21     N/A   WCI  31
* ROUNDUP APT  CLOUDY    41  28  60 W17G22     N/A
* HYSHAM       N/A       40  28  62 NW8        N/A   WCI  35
* LAME DEER    N/A       35  34  96 W14G19     N/A   WCI  26
* REED POINT   N/A       38  32  79 W14G20     N/A   WCI  30
* ROSCOE HILL  N/A       35  16  46 NW7G18     N/A   WCI  29
$$

REGIONAL REPORTS...DAKOTAS
CITY           SKY/WX    TMP DP  RH WIND       PRES   REMARKS
WILLISTON      CLOUDY   N/A N/A N/A N/A       29.85R
DICKINSON      CLOUDY    27  18  69 NE16      29.72R WCI  15
CROSBY         LGT SNOW  25  25 100 E20G29    29.92R VSB 2    WCI  11
TIOGA          CLOUDY    23  23 100 E21       29.88R WCI   8
WATFORD CITY   FAIR      27  19  72 E9G18     29.80R WCI  18
BISMARCK       CLOUDY    30  16  56 E17G26    29.80R WCI  18
GRAND FORKS    CLOUDY    30  12  47 E14       29.97S WCI  19
FARGO          LGT SNOW  28  25  89 E15       29.95F VSB 2 1/2 WCI  16
BUFFALO SD     MOCLDY    37  25  62 N7        29.59R WCI  32
RAPID CITY     CLOUDY    39  36  89 NW20      29.61R WCI  29
$$

REGIONAL REPORTS...WYOMING/IDAHO/WASHINGTON
CITY           SKY/WX    TMP DP  RH WIND       PRES   REMARKS
GILLETTE       CLOUDY    36  34  92 NW21      29.72R WCI  25
SHERIDAN       MOCLDY    37  32  82 NW20      29.79R WCI  27
CODY           PTCLDY    34  25  70 CALM      29.84R
YELLOWSTONE LA PTCLDY    14  10  84 CALM      29.93R
SALMON         CLOUDY    34  19  54 CALM      30.02R
MULLAN PASS    LGT SNOW  28  25  89 VRB7      29.92S WCI  21
SPOKANE        MOCLDY    39  25  57 SW8       29.95S WCI  33
$$

REGIONAL REPORTS...ALBERTA
CITY           SKY/WX    TMP DP  RH WIND       PRES   REMARKS
LETHBRIDGE     LGT SNOW  32  32 100 W6        29.91R VSB 1    WCI  26

$$




USA.gov is the U.S. government's official web portal to all federal, state and local government web resources and services.